Time,TemperatureF,DewpointF,PressureIn,WindDirection,WindDirectionDegrees,WindSpeedMPH,WindSpeedGustMPH,Humidity,HourlyPrecipIn,Conditions,Clouds,dailyrainin,SolarRadiationWatts/m^2,SoftwareType,DateUTC
2013-03-12 00:22:00,24.0,10.0,-100.00,NNW,335,10.0,29.0,55,0.00,,,0.00,0.000000,,2013-03-12 06:22:00,
2013-03-12 00:32:00,24.0,10.0,-100.00,NNW,335,10.0,29.0,55,0.00,,,0.00,0.000000,,2013-03-12 06:32:00,
2013-03-12 00:42:00,24.0,10.0,-100.00,NNW,335,10.0,29.0,55,0.00,,,0.00,0.000000,,2013-03-12 06:42:00,
2013-03-12 00:52:00,24.0,10.0,-100.00,NNW,335,10.0,29.0,55,0.00,,,0.00,0.000000,,2013-03-12 06:52:00,
2013-03-12 01:22:00,23.0,8.0,-100.00,NNW,329,9.0,27.0,52,0.00,,,0.00,0.000000,,2013-03-12 07:22:00,
2013-03-12 01:32:00,23.0,8.0,-100.00,NNW,329,9.0,27.0,52,0.00,,,0.00,0.000000,,2013-03-12 07:32:00,
2013-03-12 01:42:00,23.0,8.0,-100.00,NNW,329,9.0,27.0,52,0.00,,,0.00,0.000000,,2013-03-12 07:42:00,
2013-03-12 01:52:00,23.0,8.0,-100.00,NNW,329,9.0,27.0,52,0.00,,,0.00,0.000000,,2013-03-12 07:52:00,
2013-03-12 02:22:00,21.0,6.0,-100.00,NNW,332,9.0,29.0,52,0.00,,,0.00,0.000000,,2013-03-12 08:22:00,
2013-03-12 02:33:00,21.0,6.0,-100.00,NNW,332,9.0,29.0,52,0.00,,,0.00,0.000000,,2013-03-12 08:33:00,
2013-03-12 02:42:00,21.0,6.0,-100.00,NNW,332,9.0,29.0,52,0.00,,,0.00,0.000000,,2013-03-12 08:42:00,
2013-03-12 02:52:00,21.0,6.0,-100.00,NNW,332,9.0,29.0,52,0.00,,,0.00,0.000000,,2013-03-12 08:52:00,
2013-03-12 03:22:00,21.0,4.0,-100.00,NNW,333,9.0,31.0,46,0.00,,,0.00,0.000000,,2013-03-12 09:22:00,
2013-03-12 03:32:00,21.0,4.0,-100.00,NNW,333,9.0,31.0,46,0.00,,,0.00,0.000000,,2013-03-12 09:32:00,
2013-03-12 03:42:00,21.0,4.0,-100.00,NNW,333,9.0,31.0,46,0.00,,,0.00,0.000000,,2013-03-12 09:42:00,
2013-03-12 03:52:00,21.0,4.0,-100.00,NNW,333,9.0,31.0,46,0.00,,,0.00,0.000000,,2013-03-12 09:52:00,
2013-03-12 04:22:00,20.0,3.0,-100.00,NNW,342,11.0,26.0,47,0.00,,,0.00,0.000000,,2013-03-12 10:22:00,
2013-03-12 04:32:00,20.0,3.0,-100.00,NNW,342,11.0,26.0,47,0.00,,,0.00,0.000000,,2013-03-12 10:32:00,
2013-03-12 04:42:00,20.0,3.0,-100.00,NNW,342,11.0,26.0,47,0.00,,,0.00,0.000000,,2013-03-12 10:42:00,
2013-03-12 04:52:00,20.0,3.0,-100.00,NNW,342,11.0,26.0,47,0.00,,,0.00,0.000000,,2013-03-12 10:52:00,
2013-03-12 05:22:00,19.0,2.0,-100.00,NNW,333,10.0,28.0,47,0.00,,,0.00,0.000000,,2013-03-12 11:22:00,
2013-03-12 05:32:00,19.0,2.0,-100.00,NNW,333,10.0,28.0,47,0.00,,,0.00,0.000000,,2013-03-12 11:32:00,
2013-03-12 05:42:00,19.0,2.0,-100.00,NNW,333,10.0,28.0,47,0.00,,,0.00,0.000000,,2013-03-12 11:42:00,
2013-03-12 05:52:00,19.0,2.0,-100.00,NNW,333,10.0,28.0,47,0.00,,,0.00,0.000000,,2013-03-12 11:52:00,
2013-03-12 06:22:00,19.0,2.0,-100.00,NNW,327,10.0,27.0,46,0.00,,,0.00,0.000000,,2013-03-12 12:22:00,
2013-03-12 06:32:00,19.0,2.0,-100.00,NNW,327,10.0,27.0,46,0.00,,,0.00,0.000000,,2013-03-12 12:32:00,
2013-03-12 06:42:00,19.0,2.0,-100.00,NNW,327,10.0,27.0,46,0.00,,,0.00,0.000000,,2013-03-12 12:42:00,
2013-03-12 06:52:00,19.0,2.0,-100.00,NNW,327,10.0,27.0,46,0.00,,,0.00,0.000000,,2013-03-12 12:52:00,
2013-03-12 07:22:00,18.0,0.0,-100.00,NNW,333,11.0,23.0,45,0.00,,,0.00,0.000000,,2013-03-12 13:22:00,
2013-03-12 07:32:00,18.0,0.0,-100.00,NNW,333,11.0,23.0,45,0.00,,,0.00,0.000000,,2013-03-12 13:32:00,
2013-03-12 07:42:00,18.0,0.0,-100.00,NNW,333,11.0,23.0,45,0.00,,,0.00,0.000000,,2013-03-12 13:42:00,
2013-03-12 07:52:00,18.0,0.0,-100.00,NNW,333,11.0,23.0,45,0.00,,,0.00,0.000000,,2013-03-12 13:52:00,
2013-03-12 08:22:00,18.0,0.0,-100.00,NNW,334,8.0,25.0,44,0.00,,,0.00,11.000000,,2013-03-12 14:22:00,
2013-03-12 08:33:00,18.0,0.0,-100.00,NNW,334,8.0,25.0,44,0.00,,,0.00,11.000000,,2013-03-12 14:33:00,
2013-03-12 08:42:00,18.0,0.0,-100.00,NNW,334,8.0,25.0,44,0.00,,,0.00,11.000000,,2013-03-12 14:42:00,
2013-03-12 08:52:00,18.0,0.0,-100.00,NNW,334,8.0,25.0,44,0.00,,,0.00,11.000000,,2013-03-12 14:52:00,
2013-03-12 09:22:00,22.0,-1.0,-100.00,NNW,335,13.0,29.0,36,0.00,,,0.00,131.000000,,2013-03-12 15:22:00,
2013-03-12 09:32:00,22.0,-1.0,-100.00,NNW,335,13.0,29.0,36,0.00,,,0.00,131.000000,,2013-03-12 15:32:00,
2013-03-12 09:42:00,22.0,-1.0,-100.00,NNW,335,13.0,29.0,36,0.00,,,0.00,131.000000,,2013-03-12 15:42:00,
2013-03-12 09:52:00,22.0,-1.0,-100.00,NNW,335,13.0,29.0,36,0.00,,,0.00,131.000000,,2013-03-12 15:52:00,
2013-03-12 10:22:00,26.0,0.0,-100.00,North,355,10.0,24.0,32,0.00,,,0.00,431.000000,,2013-03-12 16:22:00,
2013-03-12 10:33:00,26.0,0.0,-100.00,North,355,10.0,24.0,32,0.00,,,0.00,431.000000,,2013-03-12 16:33:00,
2013-03-12 10:43:00,26.0,0.0,-100.00,North,355,10.0,24.0,32,0.00,,,0.00,431.000000,,2013-03-12 16:43:00,
2013-03-12 10:52:00,26.0,0.0,-100.00,North,355,10.0,24.0,32,0.00,,,0.00,431.000000,,2013-03-12 16:52:00,
2013-03-12 11:22:00,29.0,1.0,-100.00,NW,326,7.0,22.0,30,0.00,,,0.00,602.000000,,2013-03-12 17:22:00,
2013-03-12 11:34:00,29.0,1.0,-100.00,NW,326,7.0,22.0,30,0.00,,,0.00,602.000000,,2013-03-12 17:34:00,
2013-03-12 11:43:00,29.0,1.0,-100.00,NW,326,7.0,22.0,30,0.00,,,0.00,602.000000,,2013-03-12 17:43:00,
2013-03-12 11:53:00,29.0,1.0,-100.00,NW,326,7.0,22.0,30,0.00,,,0.00,602.000000,,2013-03-12 17:53:00,
2013-03-12 12:23:00,29.0,1.0,-100.00,North,359,11.0,23.0,29,0.00,,,0.00,724.000000,,2013-03-12 18:23:00,
2013-03-12 12:33:00,29.0,1.0,-100.00,North,359,11.0,23.0,29,0.00,,,0.00,724.000000,,2013-03-12 18:33:00,
2013-03-12 12:42:00,29.0,1.0,-100.00,North,359,11.0,23.0,29,0.00,,,0.00,724.000000,,2013-03-12 18:42:00,
2013-03-12 12:53:00,29.0,1.0,-100.00,North,359,11.0,23.0,29,0.00,,,0.00,724.000000,,2013-03-12 18:53:00,
2013-03-12 13:23:00,32.0,3.0,-100.00,North,350,8.0,22.0,28,0.00,,,0.00,789.000000,,2013-03-12 19:23:00,
2013-03-12 13:33:00,32.0,3.0,-100.00,North,350,8.0,22.0,28,0.00,,,0.00,789.000000,,2013-03-12 19:33:00,
2013-03-12 13:43:00,32.0,3.0,-100.00,North,350,8.0,22.0,28,0.00,,,0.00,789.000000,,2013-03-12 19:43:00,
2013-03-12 13:53:00,32.0,3.0,-100.00,North,350,8.0,22.0,28,0.00,,,0.00,789.000000,,2013-03-12 19:53:00,
2013-03-12 14:23:00,35.0,3.0,-100.00,NNW,340,6.0,18.0,25,0.00,,,0.00,793.000000,,2013-03-12 20:23:00,
2013-03-12 14:32:00,35.0,3.0,-100.00,NNW,340,6.0,18.0,25,0.00,,,0.00,793.000000,,2013-03-12 20:32:00,
2013-03-12 14:42:00,35.0,3.0,-100.00,NNW,340,6.0,18.0,25,0.00,,,0.00,793.000000,,2013-03-12 20:42:00,
2013-03-12 14:52:00,35.0,3.0,-100.00,NNW,340,6.0,18.0,25,0.00,,,0.00,793.000000,,2013-03-12 20:52:00,
2013-03-12 15:22:00,35.0,3.0,-100.00,North,351,8.0,19.0,25,0.00,,,0.00,727.000000,,2013-03-12 21:22:00,
2013-03-12 15:33:00,35.0,3.0,-100.00,North,351,8.0,19.0,25,0.00,,,0.00,727.000000,,2013-03-12 21:33:00,
2013-03-12 15:43:00,35.0,3.0,-100.00,North,351,8.0,19.0,25,0.00,,,0.00,727.000000,,2013-03-12 21:43:00,
2013-03-12 15:52:00,35.0,3.0,-100.00,North,351,8.0,19.0,25,0.00,,,0.00,727.000000,,2013-03-12 21:52:00,
2013-03-12 16:22:00,38.0,1.0,-100.00,NW,314,5.0,19.0,20,0.00,,,0.00,100.000000,,2013-03-12 22:22:00,
2013-03-12 16:33:00,38.0,1.0,-100.00,NW,314,5.0,19.0,20,0.00,,,0.00,100.000000,,2013-03-12 22:33:00,
2013-03-12 16:43:00,38.0,1.0,-100.00,NW,314,5.0,19.0,20,0.00,,,0.00,100.000000,,2013-03-12 22:43:00,
2013-03-12 16:52:00,38.0,1.0,-100.00,NW,314,5.0,19.0,20,0.00,,,0.00,100.000000,,2013-03-12 22:52:00,
2013-03-12 17:22:00,38.0,1.0,-100.00,North,352,4.0,15.0,20,0.00,,,0.00,196.000000,,2013-03-12 23:22:00,
2013-03-12 17:34:00,38.0,1.0,-100.00,North,352,4.0,15.0,20,0.00,,,0.00,196.000000,,2013-03-12 23:34:00,
2013-03-12 17:43:00,38.0,1.0,-100.00,North,352,4.0,15.0,20,0.00,,,0.00,196.000000,,2013-03-12 23:43:00,
2013-03-12 17:52:00,38.0,1.0,-100.00,North,352,4.0,15.0,20,0.00,,,0.00,196.000000,,2013-03-12 23:52:00,
2013-03-12 18:23:00,35.0,1.0,-100.00,NW,324,2.0,11.0,23,0.00,,,0.00,182.000000,,2013-03-13 00:23:00,
2013-03-12 18:33:00,35.0,1.0,-100.00,NW,324,2.0,11.0,23,0.00,,,0.00,182.000000,,2013-03-13 00:33:00,
2013-03-12 18:42:00,35.0,1.0,-100.00,NW,324,2.0,11.0,23,0.00,,,0.00,182.000000,,2013-03-13 00:42:00,
2013-03-12 18:53:00,35.0,1.0,-100.00,NW,324,2.0,11.0,23,0.00,,,0.00,182.000000,,2013-03-13 00:53:00,
2013-03-12 19:22:00,30.0,2.0,-100.00,NNW,331,2.0,9.0,30,0.00,,,0.00,36.000000,,2013-03-13 01:22:00,
2013-03-12 19:32:00,30.0,2.0,-100.00,NNW,331,2.0,9.0,30,0.00,,,0.00,36.000000,,2013-03-13 01:32:00,
2013-03-12 19:42:00,30.0,2.0,-100.00,NNW,331,2.0,9.0,30,0.00,,,0.00,36.000000,,2013-03-13 01:42:00,
2013-03-12 19:52:00,30.0,2.0,-100.00,NNW,331,2.0,9.0,30,0.00,,,0.00,36.000000,,2013-03-13 01:52:00,
2013-03-12 20:22:00,24.0,4.0,-100.00,SW,218,0.0,4.0,42,0.00,,,0.00,1.000000,,2013-03-13 02:22:00,
2013-03-12 20:32:00,24.0,4.0,-100.00,SW,218,0.0,4.0,42,0.00,,,0.00,1.000000,,2013-03-13 02:32:00,
2013-03-12 20:43:00,24.0,4.0,-100.00,SW,218,0.0,4.0,42,0.00,,,0.00,1.000000,,2013-03-13 02:43:00,
2013-03-12 20:52:00,24.0,4.0,-100.00,SW,218,0.0,4.0,42,0.00,,,0.00,1.000000,,2013-03-13 02:52:00,
2013-03-12 21:22:00,23.0,5.0,-100.00,NNE,18,0.0,2.0,45,0.00,,,0.00,0.000000,,2013-03-13 03:22:00,
2013-03-12 21:32:00,23.0,5.0,-100.00,NNE,18,0.0,2.0,45,0.00,,,0.00,0.000000,,2013-03-13 03:32:00,
2013-03-12 21:42:00,23.0,5.0,-100.00,NNE,18,0.0,2.0,45,0.00,,,0.00,0.000000,,2013-03-13 03:42:00,
2013-03-12 21:52:00,23.0,5.0,-100.00,NNE,18,0.0,2.0,45,0.00,,,0.00,0.000000,,2013-03-13 03:52:00,
2013-03-12 22:22:00,22.0,6.0,-100.00,NNW,341,0.0,2.0,49,0.00,,,0.00,0.000000,,2013-03-13 04:22:00,
2013-03-12 22:32:00,22.0,6.0,-100.00,NNW,341,0.0,2.0,49,0.00,,,0.00,0.000000,,2013-03-13 04:32:00,
2013-03-12 22:43:00,22.0,6.0,-100.00,NNW,341,0.0,2.0,49,0.00,,,0.00,0.000000,,2013-03-13 04:43:00,
2013-03-12 22:52:00,22.0,6.0,-100.00,NNW,341,0.0,2.0,49,0.00,,,0.00,0.000000,,2013-03-13 04:52:00,
2013-03-12 23:22:00,24.0,7.0,-100.00,WNW,301,0.0,4.0,47,0.00,,,0.00,0.000000,,2013-03-13 05:22:00,
2013-03-12 23:32:00,24.0,7.0,-100.00,WNW,301,0.0,4.0,47,0.00,,,0.00,0.000000,,2013-03-13 05:32:00,
2013-03-12 23:42:00,24.0,7.0,-100.00,WNW,301,0.0,4.0,47,0.00,,,0.00,0.000000,,2013-03-13 05:42:00,
2013-03-12 23:52:00,24.0,7.0,-100.00,WNW,301,0.0,4.0,47,0.00,,,0.00,0.000000,,2013-03-13 05:52:00,